Temperature
18 18 18 18 18 19 19 19 19 19 19 19 19 19 19 18 18 18 18 18 18 18 18 18 18 18 18 18 18 18 18 18 18 18 18 18 18 18 18 18 18 18 18
18 18 18 19 19 19 18 19 19 19 19 19 19 19 19 18 18 18 18 18 19 18 18 18 18 18 18 18 18 18 18 18 18 17 18 18 17 17 17 17 18 17 17
18 18 18 19 19 19 19 19 19 19 19 19 19 19 19 18 19 18 18 18 18 18 18 18 18 18 18 18 18 18 18 18 17 17 17 17 17 17 17 17 17 17 17
19 18 18 19 19 19 19 19 19 19 19 19 19 19 19 19 18 18 18 18 18 18 18 18 18 18 18 18 18 18 18 18 17 17 17 17 17 17 17 17 17 17 17
19 19 19 19 19 18 18 19 19 19 19 19 19 19 19 18 18 18 18 18 18 18 18 18 18 18 18 18 18 18 18 17 17 17 17 17 17 17 17 17 17 17 17
19 19 19 19 19 19 18 19 19 19 19 19 18 18 18 18 18 18 18 18 18 18 18 18 18 18 18 18 18 18 18 18 17 17 17 17 17 17 17 17 17 17 17
19 19 19 19 19 18 18 19 19 19 19 18 18 18 18 18 18 18 18 18 18 18 18 18 18 18 18 18 18 17 17 18 17 17 17 17 17 17 17 17 17 17 17
19 19 19 19 19 19 19 19 18 18 18 18 18 18 18 18 18 18 18 18 18 18 18 18 18 18 18 18 18 17 17 17 17 17 17 17 17 17 17 17 17 17 17
19 19 19 19 19 19 19 19 19 19 18 18 18 18 18 18 18 18 18 18 18 18 18 18 18 18 18 17 17 17 17 17 17 17 17 17 17 17 17 17 17 17 17
19 19 19 19 19 19 19 19 19 19 19 19 18 18 18 18 18 18 18 18 18 18 18 17 18 17 17 17 17 17 17 17 17 17 17 17 17 17 17 17 17 17 17
19 19 19 19 19 19 19 19 19 19 19 18 18 18 18 18 18 18 18 18 18 18 18 18 17 17 17 17 17 17 17 17 17 17 17 17 17 17 17 17 17 17 17
19 19 19 19 19 19 19 19 19 19 18 18 18 18 18 18 18 18 18 18 18 18 18 18 17 17 17 17 17 17 17 17 17 17 17 17 17 17 17 17 17 17 17
19 19 19 19 19 19 19 19 18 18 18 18 18 18 18 18 18 18 18 18 18 18 18 18 17 17 17 17 17 17 17 17 17 17 17 17 17 17 17 17 17 17 17
19 19 19 19 19 19 19 18 18 18 18 18 18 18 18 18 18 18 18 18 18 18 18 18 18 17 17 17 17 17 17 17 17 17 17 17 17 17 17 17 17 17 17
19 19 19 19 19 19 18 18 18 18 18 18 18 18 18 18 18 18 18 18 18 18 18 18 17 17 17 17 17 17 17 17 17 17 17 17 17 17 17 17 16 17 17
19 19 19 19 19 19 19 18 18 18 18 18 18 18 18 18 18 18 18 18 18 18 18 17 17 17 17 17 17 17 17 17 17 17 17 17 17 17 17 17 16 16 16
20 19 19 19 19 19 19 19 18 18 18 18 18 18 18 18 18 18 18 18 18 17 17 17 17 17 17 17 17 17 17 16 17 17 17 17 16 16 16 16 16 16 16
20 19 19 19 19 19 19 19 18 18 18 18 18 18 18 18 18 18 18 18 17 17 17 17 17 17 17 17 17 17 16 16 16 16 16 16 16 16 16 16 16 16 16
20 20 19 19 19 19 19 19 18 18 18 18 18 18 18 18 18 18 18 17 17 17 17 17 17 17 17 17 17 16 16 16 16 16 16 16 16 16 16 16 16 16 16
20 20 19 19 19 19 19 18 18 18 18 18 18 18 18 18 18 18 17 17 17 17 17 17 17 17 17 17 17 16 16 16 16 16 16 16 16 16 16 16 16 16 16
20 20 19 19 19 19 19 19 19 18 18 18 18 18 18 18 18 18 17 17 17 17 17 17 17 17 17 17 17 16 16 16 16 16 16 16 16 16 16 16 16 16 16
20 20 20 20 19 19 19 19 19 19 18 18 18 18 18 18 18 18 18 17 17 17 17 17 17 17 17 17 17 16 16 16 16 16 16 16 16 16 16 16 16 16 16
20 20 20 20 20 19 19 19 19 19 18 18 18 18 18 18 18 18 18 18 17 17 17 17 17 17 17 17 17 17 16 16 16 16 16 16 16 16 16 16 16 16 16
21 21 20 20 20 19 19 19 19 19 19 18 18 18 18 18 18 18 18 18 18 17 17 17 17 17 17 17 17 17 17 17 16 16 16 16 16 16 16 16 16 16 16
21 21 21 20 20 20 19 19 19 19 19 19 18 18 18 18 18 18 18 18 18 17 17 17 17 17 17 17 17 17 17 17 17 16 16 16 16 16 16 16 16 16 16
22 21 21 20 20 20 20 19 19 19 19 19 19 18 18 18 18 18 18 18 18 17 17 17 17 17 17 17 17 17 17 17 17 17 16 16 16 16 16 16 16 16 16
Wind_Speed
2 2 1 3 5 6 7 8 8 8 9 9 9 9 9 9 9 10 10 11 11 13 14 15 15 15 15 15 16 16 15 16 15 15 14 13 13 13 13 13 13 12 13
1 1 2 4 5 5 6 7 8 8 9 9 9 9 8 8 9 9 9 10 12 13 14 14 14 14 14 15 15 15 15 15 15 15 14 13 13 12 12 12 12 11 12
1 0 3 4 5 6 6 7 8 8 8 8 8 8 8 8 9 8 9 11 12 12 13 13 13 13 13 14 15 15 15 15 14 14 13 10 11 12 12 12 12 12 12
2 1 3 4 5 6 6 7 7 8 8 8 8 8 8 8 8 8 9 10 12 12 12 12 12 12 12 13 14 14 14 14 14 13 10 9 9 11 12 12 12 12 12
2 1 2 4 5 5 6 7 7 7 7 7 7 7 8 8 8 8 10 11 11 11 11 11 11 11 12 14 14 14 14 14 13 11 9 9 8 11 12 12 11 12 12
2 1 1 4 4 5 6 6 6 6 6 6 7 7 7 7 8 9 10 10 10 10 10 10 11 11 12 14 15 14 14 14 12 10 9 9 8 11 12 11 11 11 12
1 1 1 3 4 4 5 6 6 5 5 6 6 7 7 7 8 9 9 10 9 9 9 9 10 10 11 12 14 14 13 13 11 9 8 8 8 10 11 10 10 10 11
1 1 1 2 2 3 4 4 5 4 4 5 6 6 6 7 8 9 9 8 9 9 9 9 9 10 11 11 12 12 13 12 10 9 8 7 9 10 10 10 9 9 10
2 2 2 2 2 2 2 3 3 3 4 4 5 6 6 7 7 8 7 7 8 9 9 9 9 10 10 10 11 12 12 12 9 8 8 7 9 9 9 9 9 9 9
2 2 2 2 2 2 2 2 2 3 4 4 5 5 6 6 6 7 6 6 7 7 9 9 9 10 10 11 12 12 11 10 8 7 7 7 9 9 8 8 8 8 8
1 2 2 2 2 2 1 2 2 3 4 4 4 5 5 4 4 5 6 7 7 7 8 10 10 11 10 10 11 11 9 7 7 6 6 8 8 8 8 8 7 7 8
1 1 1 1 2 1 1 2 2 3 3 4 4 5 4 4 4 4 5 7 7 8 9 10 10 11 9 8 9 9 6 7 6 5 5 7 7 6 7 8 7 7 7
2 1 1 1 1 1 1 2 2 2 3 4 4 4 4 4 4 4 4 5 6 7 7 8 8 8 8 7 7 7 7 6 5 4 4 5 5 5 5 6 6 6 6
1 1 1 1 1 1 1 2 2 2 2 2 3 4 3 3 3 3 3 4 5 5 5 6 6 8 8 8 7 7 6 5 4 4 3 3 4 4 4 4 4 5 5
2 1 0 1 1 1 2 1 2 2 2 2 3 3 4 3 3 3 3 4 4 5 5 5 6 7 7 7 6 6 5 5 4 3 3 3 3 4 5 4 4 4 5
3 2 1 1 2 2 2 1 1 1 1 2 3 3 4 4 4 3 3 4 4 5 6 6 6 6 6 6 6 5 5 5 4 3 3 2 2 3 4 4 3 3 4
3 3 3 2 2 2 2 1 1 1 2 2 2 3 4 5 4 4 4 4 4 6 7 7 7 6 6 6 5 5 4 4 4 3 3 2 2 2 2 3 3 2 3
3 3 2 2 3 2 2 2 2 2 2 2 3 3 4 4 5 4 4 4 5 6 6 5 5 5 5 5 4 3 4 3 4 4 3 3 3 2 1 1 1 1 2
4 4 3 3 3 3 3 3 3 3 2 2 3 3 3 4 5 5 4 4 5 5 4 5 4 4 5 4 4 3 3 3 3 3 2 2 2 2 1 1 1 1 1
4 4 3 3 3 4 3 3 3 3 2 2 2 2 3 4 5 5 4 5 5 4 4 4 5 4 3 4 4 4 3 2 2 2 1 1 1 0 0 0 1 0 1
4 3 3 4 3 3 3 2 2 1 1 1 1 2 3 4 5 5 4 4 4 4 4 4 4 4 2 3 3 3 3 3 2 1 1 1 1 1 1 1 1 1 1
5 4 4 4 4 3 3 2 2 2 1 1 1 2 2 3 4 4 4 3 4 4 4 4 3 3 1 2 2 2 1 2 2 1 0 0 1 0 1 1 2 1 1
6 6 5 5 5 4 4 3 3 3 2 2 1 1 0 2 3 4 4 4 4 4 3 3 4 4 3 1 1 3 2 2 1 1 1 1 1 1 1 1 1 1 2
7 6 5 5 4 4 4 4 4 3 2 1 1 1 0 1 3 4 4 4 4 3 3 4 4 3 3 3 1 1 2 3 2 0 1 1 1 1 1 1 1 1 2
7 6 5 5 4 4 4 5 4 3 2 1 1 1 0 0 1 3 4 4 4 3 3 3 3 3 3 3 3 2 2 1 2 2 2 1 1 1 1 2 1 1 1
6 5 5 5 4 4 4 4 5 5 4 2 2 1 1 0 0 1 3 3 4 3 4 4 3 3 3 3 3 3 3 2 3 3 3 2 1 1 1 1 1 1 1
Wind_Direction
288 288 92 89 83 80 80 81 85 94 100 106 111 113 117 121 125 130 136 141 143 142 144 144 145 147 149 150 152 152 152 149 148 146 143 144 146 147 145 140 137 132 132
227 271 120 97 94 87 82 82 88 94 99 102 107 110 113 116 121 127 135 140 141 139 142 144 144 145 147 147 146 147 147 146 145 143 141 143 145 147 147 144 141 138 139
109 72 115 98 96 91 84 85 92 97 101 102 104 109 110 113 120 124 131 138 140 142 144 146 147 149 149 151 148 146 146 146 147 145 143 138 140 145 150 151 147 145 144
120 97 110 103 97 92 87 90 94 100 101 102 103 107 109 112 119 124 132 137 140 143 144 147 148 152 149 147 149 148 147 147 146 144 135 132 137 144 145 149 153 154 150
106 94 123 108 103 97 91 90 96 100 101 106 105 102 107 110 114 120 132 135 137 140 142 146 148 151 149 148 150 150 149 148 144 135 126 127 134 148 149 149 151 154 152
87 47 98 105 103 96 89 86 87 94 100 106 107 102 102 103 109 116 122 128 130 131 137 142 144 145 146 148 149 150 150 147 140 130 128 132 139 152 154 157 158 158 156
95 33 87 98 98 94 90 84 81 80 86 105 109 103 99 100 106 113 117 122 126 128 129 125 134 137 138 143 147 149 150 148 137 133 135 140 147 156 158 160 159 161 163
103 36 60 104 91 86 91 84 80 75 78 99 105 106 103 101 105 111 113 119 123 125 127 125 132 137 134 138 142 145 148 145 143 146 146 151 158 160 163 164 164 167 168
68 40 16 33 60 69 86 87 90 88 82 102 107 104 102 103 107 108 107 115 126 125 123 123 129 130 130 136 139 140 142 147 143 147 157 157 163 167 169 167 168 172 168
50 23 359 4 25 27 29 66 78 81 84 100 111 111 108 108 109 112 106 108 116 121 120 118 119 128 128 130 133 135 137 138 137 144 150 160 169 173 171 169 171 170 168
28 353 350 357 13 18 23 54 58 67 70 79 91 106 98 84 90 102 108 105 109 114 115 115 114 116 120 125 129 129 124 119 128 134 146 159 166 170 169 165 169 167 168
267 298 330 358 5 20 38 47 34 40 41 46 52 63 69 69 77 87 97 104 105 105 108 107 106 107 104 109 120 119 108 112 118 127 145 150 157 166 170 175 175 171 173
230 279 311 332 41 55 42 53 45 42 41 46 55 61 71 64 62 62 67 76 84 91 91 96 97 92 94 99 103 104 106 107 110 122 135 147 163 172 175 177 178 177 177
180 261 328 68 92 75 72 62 62 58 57 58 53 61 79 77 69 65 70 72 75 82 89 92 95 94 92 97 105 107 107 107 106 112 122 137 166 172 164 161 171 172 172
187 228 276 111 119 103 82 63 73 63 67 65 59 59 83 93 88 82 79 78 85 89 91 93 94 95 92 93 102 107 105 99 104 105 108 110 125 154 155 158 167 180 181
190 195 171 132 132 116 107 85 76 82 77 71 71 70 87 104 101 95 87 87 90 96 97 98 100 99 93 92 92 98 99 95 91 90 92 90 122 147 160 169 175 173 177
185 181 177 167 133 126 123 123 97 91 89 85 80 78 89 102 106 102 100 92 93 101 100 98 95 95 96 92 89 91 93 95 92 84 77 68 80 109 135 159 165 167 182
164 161 170 154 131 129 119 112 96 97 94 86 82 82 86 102 108 104 99 96 102 106 104 103 101 100 97 97 92 85 83 85 81 76 72 70 74 73 81 99 112 135 164
164 157 149 133 128 126 117 99 87 90 87 87 85 90 95 104 109 112 104 103 105 104 101 109 101 110 112 107 99 83 76 81 75 79 77 76 80 74 51 15 43 147 151
159 153 147 133 123 114 102 85 73 71 63 78 93 108 111 114 113 113 108 107 110 105 98 105 108 100 110 114 101 80 64 66 68 60 49 49 65 103 285 335 342 166 197
155 153 154 148 144 122 107 108 102 92 70 61 86 114 122 126 122 120 116 110 114 118 125 127 117 111 111 117 96 69 46 50 54 35 34 25 321 220 174 171 147 141 287
171 171 166 168 161 156 147 135 129 121 108 107 72 85 117 130 136 139 128 131 130 128 125 132 134 127 142 147 127 112 43 7 5 0 3 256 286 255 209 182 168 188 244
184 185 185 182 174 172 156 119 98 77 61 57 57 54 88 142 147 149 151 150 149 150 159 165 162 158 174 187 159 150 157 210 304 350 349 315 294 253 244 180 187 199 212
197 188 179 180 175 170 154 148 150 156 168 197 184 176 102 143 155 160 163 162 161 163 169 183 176 175 167 184 183 181 177 161 164 302 335 335 304 279 269 247 225 213 214
192 184 179 172 172 165 160 164 162 170 185 176 141 132 78 68 160 166 169 168 171 177 186 188 177 183 186 187 183 166 164 166 173 187 252 293 333 298 271 258 235 204 211
182 180 172 169 180 174 170 172 172 178 181 174 181 189 220 240 220 188 175 174 180 186 195 199 196 198 199 197 191 185 179 180 186 184 214 231 252 285 291 275 250 205 168
Height
1503 1502 1502 1501 1500 1499 1498 1497 1496 1496 1496 1496 1497 1498 1498 1499 1499 1500 1501 1502 1504 1505 1508 1510 1513 1515 1518 1521 1523 1526 1528 1531 1533 1536 1538 1540 1543 1545 1547 1548 1550 1552 1553
1504 1503 1503 1502 1501 1501 1500 1499 1498 1497 1497 1498 1498 1499 1499 1500 1500 1501 1501 1503 1504 1506 1509 1511 1514 1516 1519 1521 1524 1526 1529 1531 1534 1536 1538 1541 1543 1545 1547 1549 1551 1552 1554
1505 1504 1504 1504 1503 1502 1501 1500 1500 1499 1500 1500 1500 1500 1500 1501 1501 1501 1501 1503 1505 1507 1510 1512 1515 1517 1519 1522 1524 1527 1530 1532 1534 1537 1539 1542 1543 1545 1547 1548 1551 1552 1554
1506 1506 1505 1505 1505 1504 1503 1502 1502 1501 1502 1502 1502 1502 1502 1502 1502 1502 1501 1503 1506 1509 1511 1513 1515 1518 1520 1522 1525 1528 1530 1533 1535 1537 1539 1542 1544 1545 1547 1549 1550 1552 1554
1507 1507 1507 1507 1506 1506 1505 1504 1504 1504 1504 1504 1504 1504 1504 1504 1504 1503 1502 1504 1507 1510 1512 1514 1516 1518 1521 1523 1526 1528 1531 1533 1536 1537 1540 1542 1544 1546 1547 1549 1551 1553 1555
1509 1509 1509 1508 1508 1508 1507 1507 1506 1505 1505 1505 1506 1506 1506 1506 1506 1505 1506 1507 1510 1512 1514 1515 1517 1519 1521 1523 1526 1529 1531 1534 1535 1537 1540 1542 1544 1546 1548 1550 1551 1553 1555
1511 1510 1510 1510 1510 1510 1509 1509 1508 1507 1507 1507 1507 1508 1508 1508 1508 1508 1509 1511 1513 1514 1516 1516 1518 1520 1522 1525 1527 1529 1532 1534 1536 1538 1540 1542 1544 1546 1548 1550 1552 1553 1555
1512 1512 1512 1512 1512 1512 1511 1510 1510 1509 1509 1509 1509 1509 1510 1511 1511 1511 1512 1513 1515 1516 1518 1519 1520 1522 1524 1526 1528 1530 1533 1534 1536 1539 1541 1543 1545 1546 1548 1550 1552 1553 1555
1514 1514 1514 1514 1514 1513 1513 1512 1512 1511 1511 1511 1511 1512 1512 1513 1514 1514 1515 1515 1517 1518 1519 1521 1522 1524 1526 1528 1530 1532 1534 1535 1537 1539 1541 1543 1545 1547 1549 1550 1552 1553 1555
1516 1516 1516 1515 1515 1515 1514 1514 1514 1513 1513 1513 1513 1514 1514 1515 1516 1516 1517 1518 1519 1520 1521 1523 1524 1525 1527 1530 1532 1533 1535 1537 1539 1541 1542 1544 1546 1547 1549 1551 1552 1553 1554
1517 1517 1517 1517 1517 1517 1516 1516 1516 1515 1515 1516 1516 1516 1517 1517 1518 1519 1520 1520 1521 1522 1523 1524 1526 1527 1529 1532 1534 1535 1537 1538 1540 1542 1543 1545 1546 1548 1549 1551 1552 1553 1554
1519 1519 1519 1519 1519 1518 1518 1518 1518 1518 1518 1518 1518 1519 1519 1520 1520 1521 1522 1522 1523 1524 1525 1526 1528 1530 1531 1533 1535 1537 1538 1540 1542 1543 1544 1546 1547 1548 1550 1551 1552 1553 1554
1521 1521 1520 1520 1520 1520 1520 1520 1520 1520 1520 1520 1521 1521 1521 1522 1522 1523 1524 1524 1525 1526 1527 1528 1530 1532 1534 1536 1537 1539 1541 1542 1543 1544 1546 1547 1548 1549 1550 1551 1552 1553 1554
1522 1522 1522 1522 1522 1522 1522 1522 1522 1522 1522 1522 1523 1523 1524 1524 1524 1525 1525 1526 1527 1528 1529 1531 1532 1534 1536 1538 1539 1541 1542 1543 1545 1546 1547 1547 1548 1550 1550 1551 1552 1553 1554
1524 1524 1524 1524 1524 1524 1524 1524 1524 1524 1524 1524 1524 1525 1525 1525 1526 1527 1527 1528 1529 1530 1531 1533 1535 1536 1538 1540 1541 1543 1544 1545 1546 1547 1548 1549 1549 1550 1551 1552 1552 1553 1554
1524 1525 1525 1525 1525 1525 1525 1525 1526 1526 1526 1526 1526 1527 1527 1527 1528 1528 1529 1530 1531 1533 1534 1535 1537 1538 1540 1541 1543 1544 1545 1546 1547 1548 1549 1550 1550 1551 1551 1552 1552 1553 1554
1525 1526 1526 1526 1526 1526 1526 1527 1527 1528 1528 1528 1528 1528 1529 1529 1529 1529 1530 1532 1533 1535 1536 1537 1539 1540 1541 1543 1544 1545 1547 1548 1548 1550 1550 1550 1551 1551 1552 1552 1553 1553 1554
1526 1527 1527 1527 1527 1527 1528 1528 1529 1529 1529 1530 1530 1530 1530 1531 1531 1532 1532 1534 1535 1536 1537 1539 1540 1541 1543 1544 1545 1546 1548 1549 1550 1551 1551 1551 1551 1552 1552 1552 1552 1553 1553
1526 1527 1528 1528 1528 1527 1528 1529 1530 1531 1531 1531 1532 1532 1533 1533 1533 1534 1535 1536 1537 1538 1539 1540 1542 1543 1544 1546 1546 1547 1549 1550 1550 1551 1551 1551 1552 1552 1552 1552 1552 1553 1553
1527 1528 1528 1529 1529 1529 1530 1530 1531 1532 1532 1533 1533 1534 1534 1535 1535 1536 1536 1537 1539 1540 1541 1542 1543 1545 1546 1547 1547 1548 1549 1550 1551 1551 1551 1552 1552 1552 1552 1552 1552 1552 1553
1526 1527 1528 1529 1530 1530 1531 1531 1532 1533 1533 1534 1535 1535 1536 1537 1537 1538 1538 1539 1540 1541 1542 1544 1545 1546 1547 1547 1548 1549 1550 1550 1551 1551 1551 1551 1551 1552 1552 1552 1552 1552 1552
1526 1527 1528 1529 1530 1531 1532 1532 1533 1534 1534 1535 1536 1537 1537 1538 1539 1539 1540 1540 1541 1542 1543 1544 1545 1546 1547 1548 1549 1549 1550 1552 1550 1551 1551 1551 1551 1551 1551 1551 1551 1551 1551
1525 1526 1527 1529 1530 1531 1532 1533 1534 1535 1535 1536 1537 1538 1538 1539 1540 1540 1540 1541 1542 1543 1544 1545 1546 1546 1547 1548 1549 1550 1550 1550 1550 1551 1550 1550 1550 1550 1550 1551 1551 1550 1550
1524 1526 1527 1528 1530 1531 1532 1533 1534 1535 1535 1536 1537 1538 1539 1539 1540 1541 1541 1542 1542 1543 1544 1545 1545 1546 1546 1547 1548 1548 1549 1549 1550 1550 1550 1550 1550 1550 1550 1550 1550 1549 1549
1523 1525 1527 1528 1529 1531 1532 1533 1534 1535 1536 1537 1537 1538 1539 1539 1540 1540 1541 1541 1542 1542 1543 1544 1544 1545 1546 1546 1547 1547 1547 1548 1548 1549 1548 1549 1549 1549 1549 1548 1548 1548 1547
1522 1524 1526 1527 1529 1530 1531 1532 1533 1534 1535 1536 1537 1537 1538 1538 1539 1539 1540 1541 1541 1542 1542 1543 1543 1544 1545 1545 1545 1546 1546 1547 1547 1547 1547 1547 1547 1547 1547 1547 1547 1546 1546